EDW752X LSZH-LICA

Flight info

Callsign EDW752X
Flight time N/A
Altitude 31000
Route DEGES Z2 OSDOV M738 NATAG DCT LORLO DCT UNTAD/N0451F350 DCT MOGPU DCT EVINO/N0392F190 M620 ARBUM
Aircraft A320/M-SDE3FGHIRWY/LB1

Departure

Time N/A
Airport Zürich Airport (LSZH)

Arrival

Time 2026-05-05 14:51
Airport Lamezia Terme Sant'Eufemia International Airport (LICA)
Time Latitude Longitude Altitude Speed Heading
2026-05-05 13:36 46.43045 10.77465 31431 ft 447 kts 172°
2026-05-05 13:36 46.39999 10.78468 31583 ft 448 kts 172°
2026-05-05 13:36 46.36961 10.79463 31718 ft 449 kts 172°
2026-05-05 13:37 46.33907 10.80451 31876 ft 450 kts 172°
2026-05-05 13:37 46.30849 10.81433 32052 ft 450 kts 172°
2026-05-05 13:37 46.27795 10.82413 32218 ft 450 kts 172°
2026-05-05 13:37 46.24741 10.83393 32391 ft 449 kts 172°
2026-05-05 13:38 46.21705 10.84533 32516 ft 454 kts 166°
2026-05-05 13:38 46.18752 10.86219 32672 ft 457 kts 162°
2026-05-05 13:38 46.15818 10.87986 32867 ft 456 kts 162°
2026-05-05 13:38 46.12890 10.89744 33012 ft 456 kts 162°
2026-05-05 13:39 46.07024 10.93249 33013 ft 456 kts 162°
2026-05-05 13:39 46.01161 10.96738 33002 ft 456 kts 162°
2026-05-05 13:40 45.95308 11.00221 33000 ft 455 kts 162°
2026-05-05 13:40 45.89457 11.03697 33000 ft 455 kts 162°
2026-05-05 13:41 45.83599 11.07166 32999 ft 455 kts 162°
2026-05-05 13:41 45.77791 11.10602 32975 ft 455 kts 162°
2026-05-05 13:42 45.71931 11.14063 32979 ft 456 kts 162°
2026-05-05 13:42 45.66059 11.17508 32989 ft 456 kts 162°
2026-05-05 13:43 45.60185 11.20953 32979 ft 456 kts 162°
2026-05-05 13:43 45.54317 11.24399 32991 ft 456 kts 163°
2026-05-05 13:44 45.48440 11.27827 32992 ft 456 kts 163°
2026-05-05 13:44 45.42563 11.31247 32990 ft 456 kts 163°
2026-05-05 13:45 45.36689 11.34656 32989 ft 455 kts 163°
2026-05-05 13:45 45.30822 11.38068 32996 ft 455 kts 163°
2026-05-05 13:46 45.24999 11.41453 32993 ft 455 kts 163°
2026-05-05 13:46 45.19136 11.44836 32981 ft 455 kts 163°
2026-05-05 13:47 45.13274 11.48212 32983 ft 454 kts 163°
2026-05-05 13:47 45.07417 11.51578 32981 ft 454 kts 163°
2026-05-05 13:48 45.01558 11.54937 32950 ft 454 kts 163°
2026-05-05 13:48 44.95688 11.58297 32949 ft 455 kts 163°
2026-05-05 13:49 44.89850 11.61630 32952 ft 455 kts 163°
2026-05-05 13:49 44.83973 11.64983 32953 ft 456 kts 163°
2026-05-05 13:50 44.78094 11.68342 32939 ft 456 kts 163°
2026-05-05 13:50 44.72219 11.71684 32944 ft 456 kts 163°
2026-05-05 13:51 44.66333 11.75010 32947 ft 455 kts 163°
2026-05-05 13:51 44.60451 11.78326 32931 ft 456 kts 163°
2026-05-05 13:52 44.54559 11.81647 32924 ft 457 kts 163°
2026-05-05 13:52 44.48655 11.84979 32931 ft 457 kts 163°
2026-05-05 13:53 44.42781 11.88281 32933 ft 457 kts 163°
2026-05-05 13:53 44.36869 11.91581 32932 ft 458 kts 164°
2026-05-05 13:54 44.30953 11.94885 32935 ft 458 kts 163°
2026-05-05 13:54 44.25040 11.98189 32992 ft 458 kts 164°
2026-05-05 13:55 44.19123 12.01485 32996 ft 458 kts 164°
2026-05-05 13:55 44.13195 12.04778 32977 ft 458 kts 163°
2026-05-05 13:56 44.07260 12.08058 32970 ft 460 kts 163°
2026-05-05 13:56 44.01309 12.11346 32965 ft 460 kts 163°
2026-05-05 13:57 43.95354 12.14634 32953 ft 461 kts 164°
2026-05-05 13:57 43.89393 12.17918 32957 ft 461 kts 164°
2026-05-05 13:58 43.83465 12.21172 32963 ft 461 kts 164°
2026-05-05 13:58 43.77495 12.24436 32979 ft 461 kts 164°
2026-05-05 13:59 43.68550 12.29343 32986 ft 461 kts 164°
2026-05-05 14:00 43.60600 12.33679 32994 ft 461 kts 164°
2026-05-05 14:00 43.54751 12.37390 32974 ft 469 kts 155°
2026-05-05 14:01 43.49145 12.42012 32985 ft 470 kts 155°
2026-05-05 14:01 43.43526 12.46630 32998 ft 470 kts 155°
2026-05-05 14:02 43.37937 12.51227 33013 ft 471 kts 155°
2026-05-05 14:02 43.32310 12.55837 32993 ft 471 kts 155°
2026-05-05 14:03 43.26667 12.60441 33016 ft 472 kts 155°
2026-05-05 14:03 43.21007 12.65041 33026 ft 473 kts 155°
2026-05-05 14:04 43.15337 12.69651 33030 ft 474 kts 155°
2026-05-05 14:04 43.09662 12.74260 33009 ft 475 kts 155°
2026-05-05 14:05 43.03970 12.78864 33017 ft 476 kts 155°
2026-05-05 14:05 42.98310 12.83441 33018 ft 476 kts 155°
2026-05-05 14:06 42.92599 12.88044 33020 ft 476 kts 155°
2026-05-05 14:06 42.86890 12.92634 32992 ft 476 kts 155°
2026-05-05 14:07 42.81171 12.97225 33011 ft 478 kts 155°
2026-05-05 14:07 42.75438 13.01819 33026 ft 478 kts 155°
2026-05-05 14:08 42.69700 13.06409 33032 ft 479 kts 155°
2026-05-05 14:08 42.63950 13.10989 33033 ft 479 kts 155°
2026-05-05 14:09 42.58194 13.15558 33019 ft 479 kts 155°
2026-05-05 14:09 42.52472 13.20103 33028 ft 480 kts 155°
2026-05-05 14:10 42.46715 13.24680 33031 ft 480 kts 155°
2026-05-05 14:10 42.40939 13.29243 33018 ft 481 kts 155°
2026-05-05 14:11 42.35152 13.33794 33027 ft 482 kts 155°
2026-05-05 14:11 42.29359 13.38353 33025 ft 482 kts 155°
2026-05-05 14:12 42.23556 13.42915 33033 ft 483 kts 155°
2026-05-05 14:12 42.17756 13.47462 33023 ft 483 kts 155°
2026-05-05 14:13 42.11938 13.52006 33023 ft 484 kts 155°
2026-05-05 14:13 42.06118 13.56548 33023 ft 484 kts 155°
2026-05-05 14:14 42.00333 13.61056 33035 ft 484 kts 155°
2026-05-05 14:14 41.94506 13.65590 33045 ft 484 kts 156°
2026-05-05 14:15 41.88679 13.70102 33050 ft 484 kts 156°
2026-05-05 14:15 41.82843 13.74616 33066 ft 484 kts 156°
2026-05-05 14:16 41.77007 13.79124 33040 ft 484 kts 156°
2026-05-05 14:16 41.71168 13.83629 33046 ft 484 kts 156°
2026-05-05 14:17 41.65322 13.88122 33083 ft 484 kts 156°
2026-05-05 14:17 41.59487 13.92593 33090 ft 483 kts 156°
2026-05-05 14:18 41.53657 13.97052 33063 ft 483 kts 156°
2026-05-05 14:18 41.47832 14.01497 33084 ft 482 kts 157°
2026-05-05 14:19 41.42017 14.05927 33088 ft 481 kts 157°
2026-05-05 14:19 41.36228 14.10336 33095 ft 481 kts 156°
2026-05-05 14:20 41.30415 14.14757 33083 ft 481 kts 156°
2026-05-05 14:20 41.24597 14.19160 33095 ft 481 kts 157°
2026-05-05 14:21 41.18785 14.23550 33099 ft 481 kts 156°
2026-05-05 14:21 41.12966 14.27940 33106 ft 480 kts 156°
2026-05-05 14:22 41.07191 14.32292 33094 ft 481 kts 156°
2026-05-05 14:22 41.01377 14.36653 33096 ft 481 kts 156°
2026-05-05 14:23 40.95544 14.41022 33102 ft 482 kts 156°
2026-05-05 14:23 40.89724 14.45395 33097 ft 482 kts 156°
2026-05-05 14:24 40.83881 14.49772 33084 ft 482 kts 156°
2026-05-05 14:24 40.78034 14.54130 33078 ft 483 kts 156°
2026-05-05 14:25 40.72178 14.58469 33087 ft 483 kts 156°
2026-05-05 14:25 40.66306 14.62821 33095 ft 484 kts 156°
2026-05-05 14:26 40.60473 14.67146 33085 ft 484 kts 156°
2026-05-05 14:26 40.54606 14.71500 33090 ft 484 kts 156°
2026-05-05 14:27 40.48727 14.75841 33091 ft 485 kts 156°
2026-05-05 14:27 40.42838 14.80158 33094 ft 485 kts 156°
2026-05-05 14:28 40.36942 14.84476 33084 ft 485 kts 156°
2026-05-05 14:28 40.31052 14.88790 33087 ft 485 kts 156°
2026-05-05 14:29 40.25153 14.93125 33096 ft 486 kts 156°
2026-05-05 14:29 40.19241 14.97445 33083 ft 487 kts 156°
2026-05-05 14:30 40.13344 15.01745 33075 ft 488 kts 155°
2026-05-05 14:30 40.07397 15.06076 33077 ft 489 kts 156°
2026-05-05 14:31 40.01446 15.10393 33080 ft 490 kts 156°
2026-05-05 14:31 39.95476 15.14720 33083 ft 491 kts 156°
2026-05-05 14:32 39.89495 15.19044 33068 ft 492 kts 155°
2026-05-05 14:32 39.83492 15.23366 33075 ft 493 kts 156°
2026-05-05 14:33 39.77530 15.27654 33079 ft 493 kts 156°
2026-05-05 14:33 39.74522 15.29821 32718 ft 496 kts 155°
2026-05-05 14:33 39.71554 15.32114 32389 ft 498 kts 149°
2026-05-05 14:34 39.68813 15.34901 31924 ft 504 kts 143°
2026-05-05 14:34 39.66137 15.37866 30716 ft 508 kts 142°
2026-05-05 14:34 39.63471 15.40841 29793 ft 503 kts 142°
2026-05-05 14:34 39.60828 15.43798 28668 ft 501 kts 142°
2026-05-05 14:35 39.58196 15.46741 27488 ft 500 kts 142°
2026-05-05 14:35 39.55560 15.49681 26618 ft 500 kts 142°
2026-05-05 14:35 39.52916 15.52618 25873 ft 498 kts 142°
2026-05-05 14:35 39.50320 15.55499 25283 ft 485 kts 143°
2026-05-05 14:36 39.47775 15.58322 24498 ft 479 kts 143°
2026-05-05 14:36 39.45264 15.61096 23790 ft 472 kts 143°
2026-05-05 14:36 39.42782 15.63830 22928 ft 466 kts 143°
2026-05-05 14:36 39.40325 15.66532 22191 ft 460 kts 143°
2026-05-05 14:37 39.37902 15.69197 21559 ft 453 kts 142°
2026-05-05 14:37 39.35521 15.71821 20938 ft 447 kts 142°
2026-05-05 14:37 39.33173 15.74406 20356 ft 441 kts 142°
2026-05-05 14:37 39.30854 15.76960 19782 ft 435 kts 142°
2026-05-05 14:38 39.28561 15.79482 19233 ft 430 kts 142°
2026-05-05 14:38 39.26322 15.81942 18708 ft 426 kts 142°
2026-05-05 14:38 39.24074 15.84402 18162 ft 421 kts 142°
2026-05-05 14:38 39.21852 15.86826 17629 ft 415 kts 142°
2026-05-05 14:39 39.19672 15.89230 17105 ft 410 kts 141°
2026-05-05 14:39 39.17591 15.91715 16584 ft 406 kts 138°
2026-05-05 14:39 39.15600 15.94258 16050 ft 402 kts 137°
2026-05-05 14:39 39.13651 15.96831 15512 ft 399 kts 136°
2026-05-05 14:40 39.11726 15.99389 14968 ft 396 kts 136°
2026-05-05 14:40 39.09802 16.01923 14401 ft 394 kts 136°
2026-05-05 14:40 39.07877 16.04416 13831 ft 392 kts 136°
2026-05-05 14:40 39.05953 16.06881 13204 ft 389 kts 136°
2026-05-05 14:41 39.04042 16.09311 12620 ft 385 kts 137°
2026-05-05 14:41 39.02143 16.11718 12033 ft 381 kts 137°
2026-05-05 14:41 39.00259 16.14104 11432 ft 378 kts 136°
2026-05-05 14:41 38.98390 16.16470 10885 ft 374 kts 136°
2026-05-05 14:42 38.96574 16.18769 10744 ft 358 kts 136°
2026-05-05 14:42 38.94860 16.20944 10623 ft 343 kts 136°
2026-05-05 14:42 38.93197 16.23054 10502 ft 329 kts 136°
2026-05-05 14:42 38.91578 16.25108 10388 ft 317 kts 136°
2026-05-05 14:43 38.90198 16.27200 10233 ft 308 kts 124°
2026-05-05 14:43 38.89147 16.29558 10073 ft 302 kts 119°
2026-05-05 14:43 38.88139 16.31922 9878 ft 302 kts 120°
2026-05-05 14:43 38.87132 16.34273 9590 ft 299 kts 120°
2026-05-05 14:44 38.86124 16.36616 9303 ft 299 kts 119°
2026-05-05 14:44 38.85112 16.38956 8944 ft 298 kts 119°
2026-05-05 14:44 38.84101 16.41289 8452 ft 300 kts 119°
2026-05-05 14:44 38.83078 16.43633 7972 ft 302 kts 121°
2026-05-05 14:45 38.81996 16.45920 7505 ft 295 kts 121°
2026-05-05 14:45 38.81000 16.48187 7041 ft 289 kts 116°
2026-05-05 14:45 38.80554 16.50633 6474 ft 282 kts 84°
2026-05-05 14:45 38.81201 16.52923 5864 ft 272 kts 49°
2026-05-05 14:46 38.82663 16.54264 5276 ft 259 kts 12°
2026-05-05 14:46 38.84374 16.54225 4815 ft 242 kts 335°
2026-05-05 14:46 38.85639 16.52946 4315 ft 229 kts 304°
2026-05-05 14:46 38.86395 16.51178 4030 ft 223 kts 291°
2026-05-05 14:47 38.87021 16.49419 3999 ft 209 kts 295°
2026-05-05 14:47 38.87587 16.47766 3943 ft 200 kts 287°
2026-05-05 14:47 38.87928 16.46046 3688 ft 196 kts 280°
2026-05-05 14:47 38.88161 16.44335 3440 ft 194 kts 278°
2026-05-05 14:48 38.88372 16.42614 3177 ft 195 kts 277°
2026-05-05 14:48 38.88576 16.40901 2845 ft 192 kts 278°
2026-05-05 14:48 38.88772 16.39246 2508 ft 184 kts 277°
2026-05-05 14:48 38.88962 16.37645 2103 ft 180 kts 277°
2026-05-05 14:49 38.89150 16.36052 1712 ft 179 kts 278°
2026-05-05 14:49 38.89330 16.34529 1430 ft 164 kts 277°
2026-05-05 14:49 38.89494 16.33145 1196 ft 150 kts 277°
2026-05-05 14:49 38.89645 16.31857 998 ft 143 kts 277°
2026-05-05 14:50 38.89791 16.30617 813 ft 139 kts 278°
2026-05-05 14:50 38.89934 16.29404 635 ft 137 kts 277°
2026-05-05 14:50 38.90073 16.28209 445 ft 137 kts 277°
2026-05-05 14:50 38.90215 16.27008 237 ft 135 kts 278°
2026-05-05 14:51 38.90357 16.25814 55 ft 135 kts 277°
2026-05-05 14:51 38.90485 16.24703 32 ft 105 kts 278°
2026-05-05 14:51 38.90565 16.23991 30 ft 56 kts 279°
2026-05-05 14:51 38.90603 16.23763 31 ft 23 kts 287°
2026-05-05 14:52 38.90660 16.23612 34 ft 19 kts 307°
2026-05-05 14:52 38.90755 16.23486 33 ft 20 kts 341°
2026-05-05 14:52 38.90837 16.23595 32 ft 20 kts 96°
2026-05-05 14:52 38.90817 16.23770 32 ft 20 kts 98°
2026-05-05 14:53 38.90797 16.23938 32 ft 18 kts 98°
2026-05-05 14:53 38.90779 16.24097 32 ft 17 kts 98°
2026-05-05 14:53 38.90814 16.24221 32 ft 14 kts 56°
2026-05-05 14:53 38.90824 16.24337 32 ft 13 kts 99°
2026-05-05 14:54 38.90831 16.24433 31 ft 10 kts 31°
2026-05-05 14:54 38.90879 16.24455 31 ft 3 kts 58°
2026-05-05 14:54 38.90881 16.24458 31 ft 0 kts 56°